ONEWEB-0543 (55143 NORAD) Tracking and Keplerian Element Data

This shows tracking and keplerian element data for the satellite.

Feedback or suggestion? Click here.




ElementValue
Catalog55143
NameONEWEB-0543
Epoch Orbit1119
Epoch Day84.92760832
Epoch Year2023
RAAN253.7597
Inclination86.6215
Eccentricity0.0008887
Argument of Perigee335.2111
Mean Anonmoly24.8675
Mean Motion14.65745734
Decay Rate1.614E-05
L11 55143U 23004D 23084.92760832 .00001614 00000+0 29210-3 0 9999
L22 55143 86.6215 253.7597 0008887 335.2111 24.8675 14.65745734 11193



Live tracking and technical data element details for ONEWEB-0543 (NORAD 55143). ONEWEB-0543 can be tracked NOW for your location showing map with azimuth and elevation plus other details from your city location.







IsCatalogInMostPopularTable: catalog: 55143, numindb: 8
Update: records affected: 1



GetName: 55143 ONEWEB-0543

Hit Count: updated at: Mon, 27 Mar 2023 06:59:45 GMT